Home   Weather   Santa Cruz   Past weeks

Flag for Bolivia Past Weather in Santa Cruz, Bolivia — Yesterday and Last 2 Weeks

Now
73 °F

Clear.


Feels Like: 70 °F
Forecast: 73 / 94 °F
Wind: 3 mph from Northwest

Location: Viru-Viru

Current Time: Feb 24, 2017 at 4:21:05 am

Latest Report: Feb 24, 2017 at 3:00 am


Visibility: N/A

Pressure: 29.89 "Hg

Humidity: 94%

Dew Point: 72 °F

Location of Santa CruzLocation

Past Weather in Santa Cruz — Graph

°F

Santa Cruz Temperature Yesterday

Maximum temperature yesterday: 91 °F (at 1:00 pm)
Minimum temperature yesterday: 73 °F (at 1:00 am)
Average temperature yesterday: 82 °F

High & Low Weather Summary for the Past Weeks

 TemperatureHumidityPressure
High93 °F (Feb 21, 2:00 pm)100% (Feb 9, 3:00 am)30.01 "Hg (Feb 9, 3:00 am)
Low70 °F (Feb 11, 7:21 am)44% (Feb 13, 3:00 pm)29.65 "Hg (Feb 10, 5:00 pm)
Average78 °F82%29.87 "Hg
* Reported Feb 9 3:00 am — Feb 24 3:00 am, Santa Cruz, Weather by CustomWeather, © 2017

Note: Actual official high and low records may vary slightly from our data, if they occured in-between our weather recording intervals... More about our weather records

Advertising

Santa Cruz Weather History for the Previous 24 Hours

Scroll right to see more
 ConditionsComfort  
Time TempWeatherWind HumidityBarometerVisibility
3:00 am
Fri, Feb 24
73 °FClear.3 mph94%29.89 "HgN/A
2:00 am73 °FPartly cloudy.6 mph94%29.89 "HgN/A
1:00 am73 °FPartly cloudy.5 mph94%29.89 "HgN/A
12:00 am75 °FPartly cloudy.6 mph89%29.89 "HgN/A
11:00 pm
Thu, Feb 23
73 °FPartly cloudy.5 mph94%29.89 "HgN/A
10:00 pm75 °FPassing clouds.5 mph89%29.89 "HgN/A
9:00 pm77 °FPassing clouds.7 mph83%29.86 "HgN/A
8:00 pm79 °FPassing clouds.13 mph79%29.86 "Hg17 mi
7:00 pm84 °FPassing clouds.5 mph62%29.83 "HgN/A
6:00 pm90 °FScattered clouds.9 mph52%29.80 "HgN/A
5:00 pm91 °FScattered clouds.9 mph52%29.80 "HgN/A
4:00 pm91 °FScattered clouds.9 mph52%29.80 "HgN/A
3:00 pm90 °FPartly sunny.10 mph52%29.83 "HgN/A
2:00 pm91 °FPartly sunny.10 mph49%29.86 "HgN/A
1:00 pm91 °FScattered clouds.10 mph49%29.92 "HgN/A
12:00 pm90 °FBroken clouds.12 mph52%29.95 "HgN/A
11:00 am90 °FBroken clouds.9 mph55%29.98 "HgN/A
10:00 am88 °FPartly sunny.8 mph59%29.98 "HgN/A
9:00 am82 °FPartly sunny.6 mph74%29.98 "HgN/A
8:00 am79 °FPartly sunny.2 mph89%29.95 "HgN/A
7:00 am75 °FBroken clouds.2 mph94%29.92 "HgN/A
6:00 am75 °FPartly cloudy.2 mph94%29.92 "HgN/A
5:00 am75 °FPartly cloudy.2 mph100%29.89 "HgN/A
4:00 am75 °FPartly cloudy.2 mph100%29.89 "HgN/A
Weather by CustomWeather, © 2017

See weather overviewHow to use our weather pages